AirNav   Everest Fuels
 
 344 users online  

FL06 Orlando Health Emergency Room & Med Pav Heliport
Kissimmee, Florida, USA

GOING TO KISSIMMEE?


FAA INFORMATION EFFECTIVE 21 MAY 2020

Location

FAA Identifier: FL06
Lat/Long: 28-20-23.3912N 081-23-42.5532W
28-20.389853N 081-23.709220W
28.3398309,-81.3951537
(estimated)
Elevation: 91 ft. / 28 m (estimated)
From city: 3 miles NNE of KISSIMMEE, FL
Time zone: UTC -4 (UTC -5 during Standard Time)
Zip code: 34743

Heliport Operations

Heliport use: Private use. Permission required prior to landing
Activation date: 02/2019
Control tower: no
ARTCC: MIAMI CENTER
FSS: SAINT PETERSBURG FLIGHT SERVICE STATION
Attendance: 
Wind indicator: lighted
Segmented circle: no
Lights: SS-SR

Heliport Communications

WX AWOS-3PT at ISM (4 nm SW): 128.775 (407-847-0533)
WX ASOS at MCO (7 nm NE): PHONE 407-855-5235
WX ASOS at ORL (13 nm N): PHONE 407-658-6753

Nearby radio navigation aids

VOR radial/distance  VOR name  Freq  Var
ORLr195/12.6ORLANDO VORTAC112.2000E
LALr056/39.0LAKELAND VORTAC116.0001E

Heliport Services

Runway Information

Helipad H1

Dimensions: 42 x 42 ft. / 13 x 13 m
Surface: concrete, in excellent condition
Runway edge lights: PERI
Latitude: 28-20.389853N
Longitude: 081-23.709220W
Elevation: 91.0 ft.
Traffic pattern: leftleft

Heliport Ownership and Management from official FAA records

Ownership: Privately-owned
Owner: ORLANDO HEALTH INC.
1414 KUHL AVE., MP-71
ORLANDO, FL 32806
Phone 321-228-7595
Manager: TARYN CAPASSO
52 W. UNDERWOOD ST
ORLANDO, FL 32806
Phone 321-841-2506

Instrument Procedures

There are no published instrument procedures at FL06.

Some nearby airports with instrument procedures:

KISM - Kissimmee Gateway Airport (4 nm SW)
KMCO - Orlando International Airport (7 nm NE)
KORL - Executive Airport (13 nm N)
X04 - Orlando Apopka Airport (24 nm NW)
KGIF - Winter Haven Regional Airport (25 nm SW)
 
Loc | Ops | Rwys | IFR | FBO | Links
Com | Nav | Svcs | Stats | Notes
Aerial photo
No photo
 
Airport distance calculator
Flying to Orlando Health Emergency Room & Med Pav Heliport? Find the distance to fly.

From to FL06

Sunrise and sunset
Times for 06-Jun-2020
 Local
(UTC-4)
 Zulu
(UTC)
Morning civil twilight06:0210:02
Sunrise06:2910:29
Sunset20:2000:20
Evening civil twilight20:4700:47

Current date and time
Zulu (UTC)  06-Jun-2020 07:30:40
Local (UTC-4)  06-Jun-2020 03:30:40
 
METAR
KISM 
4nm SW 
060656Z AUTO 11003KT 10SM FEW100 23/23 A3002 RMK AO2 SLP164 T02330228 PNO $
KMCO 
6nm NE 
060653Z 09003KT 10SM SCT006 OVC250 23/22 A3001 RMK AO2 SLP161 SCT V FEW T02330222 $
KORL 
13nm N 
060653Z AUTO 09003KT 10SM SCT008 BKN110 24/22 A3001 RMK AO2 SLP164 T02390217
TAF
KISM 
4nm SW 
060543Z 0606/0706 11003KT P6SM VCSH SCT020 BKN100 FM061300 11007KT P6SM VCSH BKN030 FM062000 07010KT P6SM VCTS BKN030CB FM070300 10010KT P6SM VCSH BKN035
KMCO 
6nm NE 
060543Z 0606/0712 VRB04KT P6SM VCSH SCT020 BKN100 OVC250 FM061300 12007KT P6SM VCSH SCT030 OVC100 FM062000 07010KT P6SM VCTS BKN030CB FM070300 10010KT P6SM VCSH BKN035
NOTAMs
Click for the latest NOTAMs
NOTAMs are issued by the DoD/FAA and will open in a separate window not controlled by AirNav.

 

 
 

Would you like to see your business listed on this page?

 If your business provides an interesting product or service to pilots, flight crews, aircraft, or users of the Orlando Health Emergency Room & Med Pav Heliport, you should consider listing it here.  To start the listing process, click on the button below
 
Add a business
 

Other Pages about Orlando Health Emergency Room & Med Pav Heliport

Update a link
 
Copyright © AirNav, LLC. All rights reserved. Privacy Policy  Contact